Location: Hermaringen
(48.5952°N, 10.2585°E)
Time: 11:01:34
(UTC+00:00)

A-11 Canister half - Pass Details

Date: 17 February 2026
Orbit: 1513 x 1687 km, 47.2° (Epoch: 11 March)

Event Time Altitude Azimuth Distance (km) Brightness Sun altitude
Exits shadow 03:40:51 28° 203° (SSW) 2,629 9.9 -27.4°
Drops below altitude 10° 03:46:27 10° 169° (SSE) 3,712 11.0 -26.5°
Sets 03:49:55 0° 159° (SSE) 4,673 11.7 -25.9°
